This is the latest recevied weather packets stored in our database for station/object DB0ADS-6. If no packets are shown the sender has not sent any weather packets the latest 10 day(s).
| Time | Temp. | Humidity | Pressure | Rain* | Wind** | Luminosity | Snow |
|---|---|---|---|---|---|---|---|
| 1777399538 | 13.89° C | 41% | 1017.8 hPa | 0 mm | - | - | - |
| 1777398630 | 14.44° C | 41% | 1017.7 hPa | 0 mm | - | - | - |
| 1777398328 | 15° C | 40% | 1017.6 hPa | 0 mm | - | - | - |
| 1777397725 | 15° C | 40% | 1017.3 hPa | 0 mm | - | - | - |
| 1777397121 | 15.56° C | 40% | 1017.3 hPa | 0 mm | - | - | - |
| 1777396216 | 16.11° C | 40% | 1017.2 hPa | 0 mm | - | - | - |
| 1777395672 | 16.11° C | 40% | 1017.1 hPa | 0 mm | - | - | - |
| 1777395372 | 16.11° C | 40% | 1017.1 hPa | 0 mm | - | - | - |
| 1777394768 | 16.67° C | 40% | 1016.9 hPa | 0 mm | - | - | - |
| 1777394164 | 16.67° C | 40% | 1016.8 hPa | 0 mm | - | - | - |
| 1777393862 | 16.67° C | 40% | 1016.8 hPa | 0 mm | - | - | - |
| 1777393562 | 16.67° C | 40% | 1016.8 hPa | 0 mm | - | - | - |
| 1777393259 | 17.22° C | 40% | 1016.7 hPa | 0 mm | - | - | - |
| 1777392957 | 16.67° C | 40% | 1016.8 hPa | 0 mm | - | - | - |
| 1777392676 | 17.22° C | 40% | 1016.9 hPa | 0 mm | - | - | - |
| 1777392374 | 17.22° C | 40% | 1016.9 hPa | 0 mm | - | - | - |
| 1777391449 | 17.78° C | 38% | 1016.6 hPa | 0 mm | - | - | - |
| 1777390543 | 18.33° C | 36% | 1016.5 hPa | 0 mm | - | - | - |
| 1777390242 | 17.78° C | 36% | 1016.4 hPa | 0 mm | - | - | - |
| 1777389940 | 18.33° C | 35% | 1016.6 hPa | 0 mm | - | - | - |
| 1777389658 | 18.33° C | 34% | 1016.6 hPa | 0 mm | - | - | - |
| 1777389337 | 18.33° C | 34% | 1016.7 hPa | 0 mm | - | - | - |
| 1777389055 | 18.89° C | 33% | 1016.7 hPa | 0 mm | - | - | - |
| 1777388741 | 19.44° C | 32% | 1016.7 hPa | 0 mm | - | - | - |
| 1777388432 | 18.89° C | 32% | 1016.7 hPa | 0 mm | - | - | - |
* Rain latest hour (hover to see other rain measurements)
** Current wind speed in m/s (hover to see current wind gust speed)